Location: Skalnate Pleso
(49.1889°N, 20.2450°E)
Time: 05:39:48
(UTC+01:00)

Cosmos 2322 Rocket - Pass Details

Date: 19 November 2019
Orbit: 832 x 851 km, 71.0° (Epoch: 13 December)

Event Time Altitude Azimuth Distance (km) Brightness Sun altitude
Exits shadow 03:51:21 47° 11° (N) 1,115 2.8 -29.6°
Maximum altitude 03:52:37 57° 57° (ENE) 991 2.7 -29.4°
Drops below altitude 10° 03:58:11 10° 135° (SE) 2,467 5.1 -28.5°
Sets 04:00:41 0° 140° (SE) 3,401 5.8 -28.1°
